Time,TemperatureF,DewpointF,PressureIn,WindDirection,WindDirectionDegrees,WindSpeedMPH,WindSpeedGustMPH,Humidity,HourlyPrecipIn,Conditions,Clouds,dailyrainin,SoftwareType,DateUTC
2013-04-14 00:09:00,36.1,33.0,29.93,ENE,59,1.0,-999.0,87,-99.99,,,0.03,weatherlink.com 1.10,2013-04-14 04:09:00,
2013-04-14 00:24:00,36.5,32.0,29.94,WSW,240,0.0,-999.0,85,-99.99,,,0.03,weatherlink.com 1.10,2013-04-14 04:24:00,
2013-04-14 00:39:00,36.3,32.0,29.94,WSW,240,0.0,-999.0,84,-99.99,,,0.03,weatherlink.com 1.10,2013-04-14 04:39:00,
2013-04-14 00:54:00,35.1,31.0,29.94,WSW,240,0.0,-999.0,86,-99.99,,,0.03,weatherlink.com 1.10,2013-04-14 04:54:00,
2013-04-14 01:09:00,35.2,32.0,29.94,WSW,240,0.0,-999.0,87,-99.99,,,0.03,weatherlink.com 1.10,2013-04-14 05:09:00,
2013-04-14 01:24:00,34.4,31.0,29.94,WSW,240,0.0,-999.0,88,-99.99,,,0.03,weatherlink.com 1.10,2013-04-14 05:24:00,
2013-04-14 01:39:00,34.0,31.0,29.93,WSW,241,0.0,-999.0,89,-99.99,,,0.03,weatherlink.com 1.10,2013-04-14 05:39:00,
2013-04-14 01:54:00,33.9,31.0,29.93,WSW,241,0.0,-999.0,90,-99.99,,,0.03,weatherlink.com 1.10,2013-04-14 05:54:00,
2013-04-14 02:10:00,33.7,31.0,29.94,WSW,240,0.0,-999.0,90,-99.99,,,0.03,weatherlink.com 1.10,2013-04-14 06:10:00,
2013-04-14 02:25:00,33.7,31.0,29.93,WSW,240,0.0,-999.0,91,-99.99,,,0.03,weatherlink.com 1.10,2013-04-14 06:25:00,
2013-04-14 02:40:00,34.1,32.0,29.92,WSW,240,0.0,-999.0,92,-99.99,,,0.03,weatherlink.com 1.10,2013-04-14 06:40:00,
2013-04-14 02:55:00,34.4,32.0,29.92,ESE,111,0.0,-999.0,91,-99.99,,,0.03,weatherlink.com 1.10,2013-04-14 06:55:00,
2013-04-14 03:10:00,33.6,31.0,29.92,East,97,0.0,-999.0,91,-99.99,,,0.03,weatherlink.com 1.10,2013-04-14 07:10:00,
2013-04-14 03:25:00,34.1,32.0,29.92,East,97,0.0,-999.0,92,-99.99,,,0.03,weatherlink.com 1.10,2013-04-14 07:25:00,
2013-04-14 03:40:00,34.8,33.0,29.93,West,262,0.0,-999.0,92,-99.99,,,0.03,weatherlink.com 1.10,2013-04-14 07:40:00,
2013-04-14 03:55:00,34.0,32.0,29.92,West,261,0.0,-999.0,91,-99.99,,,0.03,weatherlink.com 1.10,2013-04-14 07:55:00,
2013-04-14 04:10:00,35.1,33.0,29.93,WSW,238,1.0,-999.0,92,-99.99,,,0.03,weatherlink.com 1.10,2013-04-14 08:10:00,
2013-04-14 04:25:00,34.4,32.0,29.93,WSW,238,0.0,-999.0,90,-99.99,,,0.03,weatherlink.com 1.10,2013-04-14 08:25:00,
2013-04-14 04:40:00,34.4,32.0,29.93,WSW,238,0.0,-999.0,91,-99.99,,,0.03,weatherlink.com 1.10,2013-04-14 08:40:00,
2013-04-14 04:55:00,33.6,31.0,29.92,WSW,238,0.0,-999.0,91,-99.99,,,0.03,weatherlink.com 1.10,2013-04-14 08:55:00,
2013-04-14 05:10:00,33.6,31.0,29.93,SW,236,1.0,-999.0,91,-99.99,,,0.03,weatherlink.com 1.10,2013-04-14 09:10:00,
2013-04-14 05:25:00,33.8,32.0,29.92,SW,236,0.0,-999.0,92,-99.99,,,0.03,weatherlink.com 1.10,2013-04-14 09:25:00,
2013-04-14 05:40:00,33.6,32.0,29.93,SW,236,1.0,-999.0,92,-99.99,,,0.03,weatherlink.com 1.10,2013-04-14 09:40:00,
2013-04-14 05:55:00,34.4,32.0,29.93,SW,215,0.0,-999.0,92,-99.99,,,0.03,weatherlink.com 1.10,2013-04-14 09:55:00,
2013-04-14 06:10:00,34.7,33.0,29.93,SSW,207,0.0,-999.0,92,-99.99,,,0.03,weatherlink.com 1.10,2013-04-14 10:10:00,
2013-04-14 06:25:00,34.6,32.0,29.93,SSW,207,0.0,-999.0,91,-99.99,,,0.03,weatherlink.com 1.10,2013-04-14 10:25:00,
2013-04-14 06:40:00,35.0,33.0,29.93,SW,215,0.0,-999.0,91,-99.99,,,0.03,weatherlink.com 1.10,2013-04-14 10:40:00,
2013-04-14 06:55:00,34.7,32.0,29.95,NW,316,0.0,-999.0,90,-99.99,,,0.03,weatherlink.com 1.10,2013-04-14 10:55:00,
2013-04-14 07:10:00,35.1,33.0,29.95,NW,315,0.0,-999.0,91,-99.99,,,0.03,weatherlink.com 1.10,2013-04-14 11:10:00,
2013-04-14 07:25:00,35.8,33.0,29.96,NW,316,0.0,-999.0,90,-99.99,,,0.03,weatherlink.com 1.10,2013-04-14 11:25:00,
2013-04-14 07:40:00,35.9,34.0,29.97,SW,236,0.0,-999.0,91,-99.99,,,0.03,weatherlink.com 1.10,2013-04-14 11:40:00,
2013-04-14 07:55:00,36.5,34.0,29.97,WSW,253,0.0,-999.0,91,-99.99,,,0.04,weatherlink.com 1.10,2013-04-14 11:55:00,
2013-04-14 08:10:00,37.1,35.0,29.98,NE,49,2.0,-999.0,91,-99.99,,,0.04,weatherlink.com 1.10,2013-04-14 12:10:00,
2013-04-14 08:25:00,36.7,34.0,29.98,ESE,104,0.0,-999.0,91,-99.99,,,0.04,weatherlink.com 1.10,2013-04-14 12:25:00,
2013-04-14 08:40:00,38.0,36.0,29.98,ESE,104,0.0,-999.0,92,-99.99,,,0.04,weatherlink.com 1.10,2013-04-14 12:40:00,
2013-04-14 08:55:00,38.5,36.0,29.98,ESE,104,0.0,-999.0,91,-99.99,,,0.04,weatherlink.com 1.10,2013-04-14 12:55:00,
2013-04-14 09:10:00,39.4,37.0,29.98,ESE,103,0.0,-999.0,90,-99.99,,,0.04,weatherlink.com 1.10,2013-04-14 13:10:00,
2013-04-14 09:25:00,42.3,37.0,29.98,WSW,237,1.0,-999.0,82,-99.99,,,0.04,weatherlink.com 1.10,2013-04-14 13:25:00,
2013-04-14 09:40:00,43.6,35.0,29.98,WSW,249,4.0,-999.0,72,-99.99,,,0.04,weatherlink.com 1.10,2013-04-14 13:40:00,
2013-04-14 09:55:00,43.8,34.0,29.98,SSW,200,5.0,-999.0,68,-99.99,,,0.04,weatherlink.com 1.10,2013-04-14 13:55:00,
2013-04-14 10:10:00,43.4,33.0,29.98,NE,41,1.0,-999.0,68,-99.99,,,0.04,weatherlink.com 1.10,2013-04-14 14:10:00,
2013-04-14 10:25:00,42.0,35.0,29.99,North,10,6.0,-999.0,76,-99.99,,,0.04,weatherlink.com 1.10,2013-04-14 14:25:00,
2013-04-14 10:40:00,45.0,36.0,29.99,East,84,0.0,-999.0,70,-99.99,,,0.04,weatherlink.com 1.10,2013-04-14 14:40:00,
2013-04-14 10:55:00,44.9,33.0,29.99,NW,324,4.0,-999.0,63,-99.99,,,0.04,weatherlink.com 1.10,2013-04-14 14:55:00,
2013-04-14 11:10:00,44.4,34.0,29.99,NNW,346,5.0,-999.0,67,-99.99,,,0.04,weatherlink.com 1.10,2013-04-14 15:10:00,
2013-04-14 11:25:00,43.7,32.0,30.00,SSW,206,4.0,-999.0,64,-99.99,,,0.04,weatherlink.com 1.10,2013-04-14 15:25:00,
2013-04-14 11:40:00,44.6,34.0,30.00,WNW,303,0.0,-999.0,66,-99.99,,,0.04,weatherlink.com 1.10,2013-04-14 15:40:00,
2013-04-14 11:55:00,46.3,32.0,30.00,SSW,209,9.0,-999.0,58,-99.99,,,0.04,weatherlink.com 1.10,2013-04-14 15:55:00,
2013-04-14 12:10:00,47.3,33.0,30.00,NNW,335,3.0,-999.0,59,-99.99,,,0.04,weatherlink.com 1.10,2013-04-14 16:10:00,
2013-04-14 12:25:00,41.5,33.0,30.01,SSW,208,7.0,-999.0,72,-99.99,,,0.04,weatherlink.com 1.10,2013-04-14 16:25:00,
2013-04-14 12:40:00,42.9,33.0,30.01,SW,227,0.0,-999.0,67,-99.99,,,0.04,weatherlink.com 1.10,2013-04-14 16:40:00,
2013-04-14 12:55:00,44.1,31.0,30.01,NW,313,0.0,-999.0,61,-99.99,,,0.04,weatherlink.com 1.10,2013-04-14 16:55:00,
2013-04-14 13:10:00,46.0,33.0,30.01,NNE,20,5.0,-999.0,62,-99.99,,,0.04,weatherlink.com 1.10,2013-04-14 17:10:00,
2013-04-14 13:25:00,45.6,31.0,30.01,NNW,334,2.0,-999.0,56,-99.99,,,0.04,weatherlink.com 1.10,2013-04-14 17:25:00,
2013-04-14 13:40:00,44.0,31.0,30.02,West,281,1.0,-999.0,61,-99.99,,,0.04,weatherlink.com 1.10,2013-04-14 17:40:00,
2013-04-14 13:55:00,42.2,31.0,30.02,WNW,294,0.0,-999.0,66,-99.99,,,0.01,weatherlink.com 1.10,2013-04-14 17:55:00,
2013-04-14 14:10:00,44.5,30.0,30.03,WNW,297,1.0,-999.0,57,-99.99,,,0.01,weatherlink.com 1.10,2013-04-14 18:10:00,
2013-04-14 14:26:00,46.7,29.0,30.02,NNW,341,6.0,-999.0,51,-99.99,,,0.01,weatherlink.com 1.10,2013-04-14 18:26:00,
2013-04-14 14:41:00,46.4,31.0,30.03,WSW,249,8.0,-999.0,55,-99.99,,,0.01,weatherlink.com 1.10,2013-04-14 18:41:00,
2013-04-14 14:56:00,46.4,30.0,30.04,NNW,328,2.0,-999.0,54,-99.99,,,0.01,weatherlink.com 1.10,2013-04-14 18:56:00,
2013-04-14 15:11:00,46.5,30.0,30.04,West,263,3.0,-999.0,52,-99.99,,,0.01,weatherlink.com 1.10,2013-04-14 19:11:00,
2013-04-14 15:26:00,45.8,29.0,30.04,NNW,337,0.0,-999.0,53,-99.99,,,0.01,weatherlink.com 1.10,2013-04-14 19:26:00,
2013-04-14 15:41:00,47.7,31.0,30.05,NE,36,7.0,-999.0,53,-99.99,,,0.01,weatherlink.com 1.10,2013-04-14 19:41:00,
2013-04-14 15:56:00,46.3,31.0,30.06,NW,305,7.0,-999.0,55,-99.99,,,0.01,weatherlink.com 1.10,2013-04-14 19:56:00,
2013-04-14 17:11:00,44.7,30.0,30.08,NW,321,5.0,-999.0,57,-99.99,,,0.01,weatherlink.com 1.10,2013-04-14 21:11:00,
2013-04-14 17:26:00,44.6,30.0,30.10,WSW,237,0.0,-999.0,57,-99.99,,,0.01,weatherlink.com 1.10,2013-04-14 21:26:00,
2013-04-14 17:41:00,43.5,30.0,30.11,NW,318,11.0,-999.0,59,-99.99,,,0.01,weatherlink.com 1.10,2013-04-14 21:41:00,
2013-04-14 17:56:00,42.8,30.0,30.12,WSW,249,6.0,-999.0,61,-99.99,,,0.01,weatherlink.com 1.10,2013-04-14 21:56:00,
2013-04-14 18:11:00,42.2,30.0,30.13,WNW,292,0.0,-999.0,63,-99.99,,,0.01,weatherlink.com 1.10,2013-04-14 22:11:00,
2013-04-14 18:26:00,41.8,29.0,30.14,WNW,283,2.0,-999.0,62,-99.99,,,0.01,weatherlink.com 1.10,2013-04-14 22:26:00,
2013-04-14 18:56:00,41.2,30.0,30.14,North,351,1.0,-999.0,65,-99.99,,,0.01,weatherlink.com 1.10,2013-04-14 22:56:00,
2013-04-14 19:26:00,40.0,31.0,30.15,NNE,15,2.0,-999.0,69,-99.99,,,0.01,weatherlink.com 1.10,2013-04-14 23:26:00,
2013-04-14 19:41:00,39.8,31.0,30.16,NNW,341,4.0,-999.0,70,-99.99,,,0.01,weatherlink.com 1.10,2013-04-14 23:41:00,
2013-04-14 19:56:00,39.3,31.0,30.17,NW,326,12.0,-999.0,72,-99.99,,,0.01,weatherlink.com 1.10,2013-04-14 23:56:00,
2013-04-14 20:11:00,38.2,31.0,30.18,WNW,282,0.0,-999.0,75,-99.99,,,0.01,weatherlink.com 1.10,2013-04-15 00:11:00,
2013-04-14 20:26:00,37.2,31.0,30.18,South,182,4.0,-999.0,77,-99.99,,,0.01,weatherlink.com 1.10,2013-04-15 00:26:00,
2013-04-14 20:41:00,36.7,31.0,30.20,ENE,70,0.0,-999.0,79,-99.99,,,0.01,weatherlink.com 1.10,2013-04-15 00:41:00,
2013-04-14 20:57:00,36.2,31.0,30.21,WNW,294,2.0,-999.0,80,-99.99,,,0.01,weatherlink.com 1.10,2013-04-15 00:57:00,
2013-04-14 21:12:00,36.1,31.0,30.22,WNW,294,0.0,-999.0,81,-99.99,,,0.01,weatherlink.com 1.10,2013-04-15 01:12:00,
2013-04-14 21:27:00,35.7,30.0,30.22,WNW,294,0.0,-999.0,81,-99.99,,,0.01,weatherlink.com 1.10,2013-04-15 01:27:00,
2013-04-14 21:42:00,35.7,31.0,30.22,WNW,294,0.0,-999.0,82,-99.99,,,0.01,weatherlink.com 1.10,2013-04-15 01:42:00,
2013-04-14 21:57:00,35.1,30.0,30.23,WNW,294,0.0,-999.0,81,-99.99,,,0.01,weatherlink.com 1.10,2013-04-15 01:57:00,
2013-04-14 22:12:00,34.4,30.0,30.23,WNW,282,2.0,-999.0,83,-99.99,,,0.01,weatherlink.com 1.10,2013-04-15 02:12:00,
2013-04-14 22:27:00,33.6,29.0,30.23,WNW,282,0.0,-999.0,84,-99.99,,,0.01,weatherlink.com 1.10,2013-04-15 02:27:00,
2013-04-14 22:42:00,33.3,29.0,30.23,WSW,247,2.0,-999.0,85,-99.99,,,0.01,weatherlink.com 1.10,2013-04-15 02:42:00,
2013-04-14 22:57:00,33.2,29.0,30.23,WSW,244,0.0,-999.0,85,-99.99,,,0.01,weatherlink.com 1.10,2013-04-15 02:57:00,
2013-04-14 23:12:00,32.1,28.0,30.24,WSW,244,0.0,-999.0,86,-99.99,,,0.01,weatherlink.com 1.10,2013-04-15 03:12:00,
2013-04-14 23:27:00,31.8,28.0,30.25,West,274,0.0,-999.0,87,-99.99,,,0.01,weatherlink.com 1.10,2013-04-15 03:27:00,
2013-04-14 23:42:00,30.7,28.0,30.25,West,274,0.0,-999.0,88,-99.99,,,0.01,weatherlink.com 1.10,2013-04-15 03:42:00,
2013-04-14 23:57:00,30.6,28.0,30.26,West,274,0.0,-999.0,88,-99.99,,,0.01,weatherlink.com 1.10,2013-04-15 03:57:00,